Theta_e
318 312 318 332 328 325 327 329 330 330 336 337 334 331 330 331 333 334 331 329 329 325 324 323 321 321 320 319 319 319 319 319 319 320 320 320 319 317 316 317 319 319 319 320 321 317 313 311 311
312 319 329 331 331 332 326 326 327 327 337 336 335 333 333 336 335 335 333 333 327 325 325 323 322 320 320 319 319 319 319 319 320 320 321 322 321 319 317 316 320 323 323 323 323 319 318 322 319
313 328 328 329 329 327 327 329 333 336 336 336 335 335 333 336 335 333 334 334 332 326 324 323 322 321 320 319 319 319 319 320 320 321 321 321 322 322 320 317 317 322 325 325 323 323 323 325 323
317 327 327 329 332 331 331 329 331 336 336 336 336 336 333 336 335 335 335 333 333 329 324 324 323 321 320 320 319 319 319 320 320 320 321 321 321 322 322 320 316 316 322 328 328 328 330 329 328
326 327 325 327 329 330 331 331 330 333 335 336 336 333 332 335 336 336 335 333 332 332 330 325 323 322 321 320 320 319 319 319 320 320 321 321 322 322 322 322 320 317 318 330 331 329 329 330 331
326 326 325 327 328 328 328 329 329 334 335 335 332 331 331 335 334 335 334 333 333 331 331 331 329 324 323 321 320 320 319 319 320 320 320 321 321 321 322 322 322 320 324 325 328 324 322 325 328
327 323 325 326 327 327 328 329 329 330 335 332 332 330 331 333 332 331 333 333 333 333 332 332 332 329 324 321 321 320 320 319 319 320 320 321 321 321 321 322 322 322 327 329 325 322 321 320 321
328 324 326 325 327 327 328 328 329 329 329 332 332 330 330 331 331 332 332 332 334 334 334 334 333 333 332 328 320 320 320 319 319 320 320 321 321 321 321 321 323 323 328 329 330 330 330 326 320
329 327 325 325 326 326 327 326 329 330 331 331 332 331 331 332 331 332 332 334 334 335 334 334 334 333 333 333 328 320 320 320 319 319 320 321 321 322 322 322 325 326 330 331 331 330 329 329 324
328 328 328 324 325 324 325 326 327 329 330 331 331 332 332 331 333 332 332 332 332 333 334 334 334 334 334 333 333 329 321 320 320 319 320 320 321 322 323 323 329 330 332 332 330 329 330 326 326
329 331 330 329 327 326 326 326 327 329 330 331 331 332 332 332 331 332 331 331 330 330 330 331 333 334 334 334 334 334 332 326 320 320 320 320 321 322 323 324 330 330 332 334 331 330 329 329 327
328 331 331 332 330 327 326 326 327 328 329 331 331 332 331 331 332 332 331 331 332 331 330 330 329 331 333 335 335 335 334 333 326 320 320 320 320 321 322 325 330 329 331 334 332 330 329 329 328
324 326 328 328 328 328 328 327 327 328 330 331 331 331 330 330 330 329 330 331 331 331 331 330 328 328 328 332 334 335 335 336 330 324 322 322 322 321 322 330 330 333 332 333 333 332 330 329 329
319 322 324 324 324 326 328 328 329 329 329 329 329 329 329 329 330 330 329 329 331 331 331 329 328 328 327 326 329 331 334 336 335 332 326 330 334 328 331 331 332 331 334 334 333 332 331 331 330
316 316 318 319 320 321 325 325 326 327 327 328 328 329 329 329 329 330 330 329 330 331 330 328 328 328 328 327 328 330 333 336 337 337 338 338 336 335 332 333 332 331 334 334 333 332 332 332 331
318 318 319 320 320 321 322 324 326 327 327 327 328 328 328 328 328 329 329 329 329 329 327 328 328 329 327 328 329 333 335 337 337 339 339 340 337 335 333 332 332 332 332 333 333 332 331 330 330
314 320 320 321 321 322 322 324 324 326 327 326 326 327 327 328 328 329 329 329 329 328 327 327 329 329 327 329 330 334 338 338 340 340 342 339 335 333 332 332 333 333 330 331 331 331 331 329 328
316 317 319 320 321 321 322 323 323 324 325 325 326 326 326 327 327 328 328 329 328 328 327 327 329 329 328 330 332 338 340 341 341 341 339 334 333 333 333 333 334 331 330 331 331 331 329 328 327
317 318 319 321 320 321 321 322 323 324 323 323 324 325 326 327 328 327 329 329 327 328 327 328 329 329 330 333 338 341 342 342 338 336 334 334 332 333 333 334 333 333 332 332 330 329 328 328 327
314 315 316 316 317 320 321 321 322 323 323 323 323 324 324 325 326 327 328 328 329 328 328 329 330 330 332 335 338 340 340 340 339 339 338 334 333 332 333 334 333 333 331 330 329 327 326 327 328
313 313 314 315 316 315 316 317 318 319 320 321 322 323 325 327 328 329 329 329 328 328 328 330 332 332 335 339 341 341 340 339 340 338 334 333 333 333 334 333 333 329 330 330 326 325 326 326 326
313 314 314 315 316 316 316 316 317 318 319 319 320 323 325 325 326 327 329 328 328 329 332 332 334 336 340 341 341 339 336 334 334 333 334 334 334 334 333 333 331 330 329 326 325 325 326 326 326
312 314 315 316 315 315 316 315 318 317 319 319 320 323 324 325 326 327 328 328 329 332 333 333 335 338 339 339 338 334 333 334 335 335 335 334 334 333 332 331 331 330 327 327 325 325 325 325 326
310 313 314 314 314 315 315 316 318 317 318 318 321 324 325 324 324 325 327 329 332 334 335 335 335 337 338 337 335 336 337 335 334 333 333 332 332 331 331 331 331 329 327 326 326 325 325 325 325
307 308 311 313 314 317 315 315 317 318 318 318 318 321 322 324 325 326 327 332 335 336 336 335 336 337 336 334 335 335 334 334 333 332 332 332 332 330 330 329 329 328 327 325 325 325 325 326 325
306 306 310 313 316 316 316 316 317 317 318 319 320 321 322 324 324 330 333 335 336 337 336 335 335 335 337 335 335 335 333 333 333 334 333 330 330 328 329 328 328 328 325 325 325 326 326 327 327
309 307 308 310 312 314 316 317 317 317 317 318 318 320 323 325 328 334 336 337 337 337 336 333 333 335 336 335 335 335 334 332 327 330 331 330 329 328 328 327 327 326 325 325 327 326 326 325 325
310 311 308 308 313 315 315 317 318 317 317 318 317 318 325 330 336 338 338 338 337 337 335 333 334 334 335 334 331 325 325 330 330 330 330 329 328 328 328 328 327 326 326 327 327 325 325 324 325
313 311 310 309 311 315 315 316 316 317 317 318 321 321 335 336 337 338 338 337 337 336 333 334 334 332 332 330 327 329 330 330 330 330 330 329 330 329 328 326 327 327 327 327 327 325 324 325 326
311 313 312 308 309 313 315 316 318 315 316 318 320 334 336 337 338 338 338 337 337 334 334 335 334 332 331 331 330 332 331 330 330 330 331 329 329 329 327 327 327 327 327 328 327 326 325 327 326
Wind_Speed
4 5 7 2 1 4 3 6 6 10 4 3 15 4 6 3 5 4 22 20 21 17 16 15 14 14 13 13 13 11 10 9 7 5 4 3 4 5 5 4 2 1 2 3 4 4 5 6 7
6 8 4 1 2 2 5 4 6 7 1 13 13 9 4 1 15 15 25 20 16 14 14 15 14 14 14 15 14 14 14 12 9 7 5 2 3 5 5 5 3 1 3 4 5 5 4 4 5
8 7 3 3 3 5 5 6 4 5 7 2 2 8 7 7 16 18 15 18 19 17 15 14 13 15 16 17 16 17 16 14 12 9 7 4 1 2 5 6 5 3 3 5 6 7 8 8 7
8 2 2 2 9 8 6 7 2 5 5 7 9 3 2 13 25 15 15 14 19 18 16 16 14 15 17 18 18 19 19 17 14 12 9 6 4 3 4 6 7 7 6 6 7 7 8 9 9
9 2 0 4 6 9 6 13 24 7 5 4 11 4 2 14 19 23 19 13 15 17 16 17 18 17 18 20 22 23 22 20 17 15 12 9 7 5 5 6 8 8 9 8 8 9 12 14 13
2 2 1 5 8 7 5 17 18 7 8 10 6 5 4 15 15 18 15 15 12 8 12 14 19 21 22 23 25 26 25 24 21 19 16 13 11 9 7 8 10 8 7 8 12 13 13 15 17
4 2 4 4 6 10 6 14 9 12 13 5 14 7 12 19 13 12 12 12 16 16 16 16 19 23 24 25 27 28 28 26 24 23 19 17 15 13 10 9 12 10 7 7 9 10 12 13 14
6 2 3 4 3 9 2 13 17 7 16 13 9 4 4 19 16 11 8 12 20 25 24 21 20 25 27 27 30 29 29 28 27 25 23 21 19 16 13 11 13 11 9 8 8 9 11 12 12
15 1 4 6 5 6 16 8 18 16 14 5 3 7 4 13 18 13 16 24 23 26 27 30 27 29 30 29 31 32 32 30 30 29 27 25 23 19 15 13 12 11 10 10 10 11 11 14 13
7 5 8 7 7 8 19 24 22 16 13 14 12 2 13 2 22 19 17 16 21 25 26 30 31 32 32 34 32 34 35 35 35 35 32 31 26 21 16 15 13 12 10 10 11 12 11 8 7
9 12 13 18 18 18 23 23 30 16 16 11 9 13 18 15 11 22 20 16 14 17 17 22 30 34 35 36 36 35 36 38 39 38 35 33 28 23 19 17 16 15 11 14 13 13 11 9 7
9 19 24 31 28 24 19 30 22 25 23 32 25 32 22 21 22 26 26 21 22 21 21 28 22 24 29 37 39 40 40 39 40 39 36 35 32 26 21 19 17 16 14 16 16 15 11 11 11
18 10 22 28 30 30 30 26 24 30 35 39 33 27 27 23 28 32 33 32 31 27 30 28 19 17 21 31 38 41 43 39 37 37 36 35 32 28 22 17 17 19 18 17 17 17 16 16 16
4 15 25 26 28 30 23 27 32 36 42 36 34 30 29 31 31 37 35 31 30 27 27 24 19 21 23 23 27 33 39 40 33 30 29 27 25 23 18 16 16 20 19 18 17 17 18 19 19
19 13 16 19 16 11 17 22 24 35 35 33 36 36 36 37 36 28 27 29 27 31 22 18 19 22 25 23 23 26 34 39 33 27 25 24 20 18 16 15 17 17 18 19 19 20 20 22 21
4 5 19 19 18 15 7 30 18 19 25 31 32 38 42 45 47 48 46 38 31 18 17 17 20 21 23 20 21 21 29 37 31 24 23 23 20 17 16 18 14 16 20 21 23 22 22 22 25
7 17 18 17 11 8 15 39 17 31 29 23 30 38 41 44 45 42 43 39 30 25 24 23 19 20 22 21 18 22 29 31 25 22 23 22 20 15 18 15 14 17 16 20 22 21 22 21 21
12 18 20 18 6 16 21 32 21 29 29 29 38 40 38 42 47 39 45 39 28 29 28 22 18 23 21 20 23 26 29 26 24 23 22 20 16 17 15 15 17 16 15 18 20 20 19 19 18
10 18 8 2 13 16 18 18 20 19 18 21 35 32 39 41 43 38 33 29 27 28 25 21 23 24 22 24 30 30 28 25 24 22 22 19 15 14 15 15 17 19 19 17 18 18 18 17 17
15 14 16 8 9 11 15 23 24 21 19 29 31 31 36 37 43 38 30 27 23 23 21 21 24 23 23 25 31 35 32 25 21 23 21 18 16 16 15 16 16 20 19 17 15 14 13 14 14
16 20 15 12 13 23 13 12 11 13 15 26 26 34 36 32 32 31 29 27 26 23 20 25 25 23 22 24 25 24 22 19 22 19 17 19 17 16 16 17 18 17 16 15 11 10 9 11 12
20 9 16 16 10 16 9 18 22 18 23 18 20 29 29 32 36 33 27 29 26 21 22 22 21 20 21 21 20 20 19 23 21 17 14 18 20 19 17 17 15 12 13 10 8 9 10 12 13
20 11 15 13 11 16 19 6 26 6 17 14 12 23 32 39 34 33 30 27 24 23 25 20 17 19 19 17 15 19 18 16 13 15 15 13 17 18 16 15 14 12 10 8 9 10 10 12 13
5 8 10 9 4 10 10 8 28 15 22 15 6 24 33 38 37 32 22 21 26 25 22 18 18 20 19 18 20 17 18 19 15 14 12 12 12 14 15 14 13 12 9 8 8 8 6 6 7
5 2 2 3 6 17 12 9 22 6 3 8 11 22 36 37 29 25 20 28 30 27 22 19 22 24 22 21 22 18 18 16 13 14 13 11 12 14 14 13 12 11 7 7 7 6 6 6 7
6 9 5 7 4 7 9 13 17 19 31 33 33 32 38 34 16 20 27 34 32 28 23 24 26 27 25 23 20 16 17 14 13 12 12 10 10 10 9 10 11 9 7 6 7 6 4 5 5
5 9 5 5 15 1 7 10 18 21 24 21 24 21 31 22 19 30 35 34 31 27 24 26 31 28 25 22 17 14 15 15 11 8 8 9 10 7 6 7 8 8 7 7 6 4 5 6 7
9 3 4 4 6 9 6 8 11 6 10 12 10 16 16 19 28 32 34 32 27 23 25 29 27 26 23 19 13 10 10 8 6 6 8 7 7 5 5 6 8 8 9 7 4 5 5 4 6
2 4 4 4 4 10 6 9 6 12 12 15 15 20 29 33 35 37 34 30 26 25 29 27 24 24 21 15 10 11 8 5 5 5 5 6 6 6 5 6 8 10 8 6 3 5 4 3 4
7 5 5 4 10 5 10 18 8 10 11 12 10 20 32 39 41 38 35 33 30 30 30 26 23 20 15 11 15 8 8 4 5 5 7 5 6 7 9 10 9 7 5 2 3 5 3 4 4
Wind_Direction
231 176 170 189 45 78 255 254 240 272 272 289 15 54 132 89 152 196 152 152 158 155 165 176 174 180 184 184 181 181 180 180 170 149 126 82 45 40 40 39 22 279 271 279 276 263 253 255 262
196 154 173 148 117 150 254 233 245 261 313 316 353 42 45 55 127 146 156 159 155 164 172 177 176 184 191 194 190 191 193 191 188 178 173 144 40 18 10 8 20 284 247 266 278 276 259 261 266
181 159 160 142 198 210 212 195 140 268 269 15 226 271 129 158 158 141 152 157 173 182 179 176 180 189 196 202 202 201 202 200 199 199 201 200 215 348 4 356 347 320 262 268 271 268 273 278 275
175 199 235 150 237 263 254 288 360 264 293 264 268 311 102 158 153 158 153 167 183 190 186 190 194 195 202 208 211 210 210 210 210 213 219 221 234 281 342 344 332 322 296 266 263 260 268 272 277
175 174 305 241 245 253 283 292 299 245 240 221 207 177 81 179 173 170 164 173 193 199 198 205 207 209 210 214 216 216 216 216 219 221 229 235 244 263 296 320 320 315 302 269 264 260 259 264 264
198 244 141 241 247 270 283 293 297 213 281 285 248 123 157 155 164 164 178 180 188 210 220 221 222 218 221 221 222 220 218 217 221 225 231 238 247 254 274 300 310 306 303 284 265 265 260 254 256
153 110 231 273 283 299 282 308 319 309 237 245 141 122 162 176 189 179 181 198 209 212 230 224 235 225 227 230 228 226 223 221 223 227 233 237 244 250 263 287 303 297 295 289 277 272 268 268 264
197 118 271 252 238 275 196 338 318 340 300 95 138 151 200 192 188 188 210 234 218 217 225 235 240 241 238 233 231 231 229 229 229 231 234 237 241 246 255 274 292 283 287 288 286 287 287 280 269
200 161 233 240 210 257 330 356 304 336 347 7 208 153 163 211 189 200 215 213 217 226 237 236 238 242 246 242 236 232 233 234 233 235 234 238 239 244 253 269 277 273 278 291 297 295 294 284 266
171 196 230 215 251 292 310 306 293 325 321 326 332 184 343 198 210 202 207 220 228 232 238 242 239 243 248 247 243 236 235 235 235 235 236 239 240 244 252 265 263 270 282 285 291 295 289 291 272
198 219 232 258 260 273 284 286 287 301 298 280 300 320 330 273 245 220 234 224 259 266 250 245 239 242 243 247 246 242 240 237 237 238 238 242 242 242 249 259 255 265 272 271 277 284 282 268 267
254 227 228 254 257 260 260 277 282 277 275 285 296 286 293 289 268 287 258 271 277 262 282 284 264 244 246 245 247 247 246 240 238 240 238 240 242 242 246 255 257 266 268 262 266 283 275 273 264
244 240 232 243 258 258 263 265 265 277 280 283 283 268 267 281 290 291 285 282 283 262 282 274 260 268 259 245 245 247 246 245 240 242 241 244 245 246 247 246 259 266 260 258 270 282 265 260 258
286 244 254 254 252 254 255 261 263 269 272 278 283 275 284 293 292 294 286 284 286 265 259 251 262 283 281 268 256 259 255 246 240 240 238 242 243 237 231 245 255 256 261 263 266 274 270 264 259
258 271 276 253 252 257 270 265 250 254 268 273 274 281 291 295 294 288 287 286 297 275 253 244 271 283 282 272 280 271 259 244 241 238 230 234 226 221 240 246 256 266 259 256 262 267 265 264 257
259 246 244 249 248 255 258 261 253 261 257 262 272 283 283 285 284 276 281 277 283 257 237 253 273 272 273 273 277 266 254 240 241 238 230 226 223 222 237 242 261 270 255 256 261 266 263 264 258
231 243 240 246 228 233 206 258 256 258 256 270 280 280 279 281 277 278 279 276 270 250 248 260 266 271 271 270 266 250 240 231 231 226 221 219 212 222 243 257 266 264 263 261 266 269 270 265 256
220 226 237 247 220 231 242 261 263 265 271 272 272 272 271 267 269 286 284 274 256 253 255 260 270 273 261 255 242 229 221 219 219 217 206 204 219 236 243 261 273 274 280 269 275 271 267 266 257
259 245 268 232 217 228 245 257 261 254 248 261 267 270 267 265 268 279 277 242 251 251 255 265 271 258 249 229 218 205 195 195 196 205 221 235 232 228 249 266 276 271 282 281 277 270 264 257 255
249 264 266 290 289 236 246 255 263 264 259 252 258 262 262 273 282 276 237 239 243 255 252 263 255 240 235 230 216 215 213 213 230 232 235 233 236 249 258 268 279 276 274 275 274 273 262 252 235
231 236 254 261 294 288 291 285 284 266 252 260 266 270 272 274 281 276 251 242 243 248 255 247 227 227 228 212 204 202 211 220 226 223 227 232 236 246 258 266 268 271 268 273 271 268 263 254 240
246 241 238 254 250 258 216 277 268 266 264 264 245 254 264 274 274 274 257 244 240 236 230 220 219 215 204 202 199 202 208 195 196 203 217 225 232 241 250 266 275 277 273 266 259 248 248 244 238
252 259 232 237 235 251 262 293 267 250 258 247 248 261 265 266 270 276 258 243 223 214 209 207 206 195 191 188 192 183 184 191 200 207 222 221 226 240 260 268 270 265 259 260 262 252 251 246 238
325 245 244 253 234 251 219 199 272 248 246 246 218 247 258 270 278 279 269 218 205 199 197 191 187 182 178 177 179 181 188 194 193 202 211 227 232 253 268 269 257 244 249 259 258 240 229 210 218
209 47 245 246 197 236 158 211 237 248 279 223 237 248 258 261 262 260 243 196 191 189 184 178 178 170 169 169 178 182 199 204 205 211 221 233 257 271 268 246 233 229 245 253 234 216 205 224 230
215 177 197 195 204 230 275 229 240 232 262 266 262 255 263 266 253 227 198 188 186 182 178 174 173 169 168 174 181 188 196 204 206 216 235 247 259 259 249 233 214 221 231 225 208 200 232 225 222
308 222 179 287 273 271 226 274 281 275 275 267 269 255 257 263 230 194 186 182 178 173 174 172 165 168 175 180 181 190 205 216 215 217 241 257 254 239 230 203 203 210 206 193 184 206 209 232 229
208 253 177 205 200 240 253 257 234 255 261 266 261 245 220 208 179 179 176 175 169 169 166 165 164 168 179 182 189 189 179 191 216 253 255 231 218 207 200 196 198 192 182 175 179 188 212 238 233
273 216 191 161 197 221 256 249 197 264 260 278 296 211 165 170 175 173 173 172 165 164 163 163 160 166 169 170 170 155 154 188 240 235 203 191 200 183 168 173 172 172 174 164 177 214 227 223 210
258 255 172 219 238 258 242 253 312 251 278 285 242 165 166 168 168 169 171 165 163 160 163 160 159 162 158 161 161 157 185 203 228 201 188 190 188 166 146 135 143 151 163 185 216 214 204 222 250